Regional Weather Roundup
Issued by NWS

Home | Current Version | Previous Version | Graphics & Text | Print | Product List | Glossary On
Versions: 1 2 3 4 5 6 7 8 9 10 11 12 13 14 15 16 17 18 19 20 21 22 23 24 25 26 27 28 29 30 31 32 33 34 35 36 37 38 39 40 41 42 43 44 45 46 47 48 49 50
000
ASUS43 KBIS 220210
RWRND

NORTH DAKOTA REGIONAL WEATHER ROUNDUP
NATIONAL WEATHER SERVICE BISMARCK ND
900 PM CDT SAT OCT 21 2017

NOTE: "FAIR" INDICATES FEW OR NO CLOUDS BELOW 12,000 FEET WITH NO
SIGNIFICANT WEATHER AND/OR OBSTRUCTIONS TO VISIBILITY.


NDZ001>003-009>011-017-220300-
NORTHWEST NORTH DAKOTA

CITY           SKY/WX    TMP DP  RH WIND       PRES   REMARKS
WILLISTON      CLEAR     40  28  62 W8        29.78R
MINOT          CLOUDY    48  37  65 W18G29    29.71R
MINOT AFB      MOCLDY    46  36  66 NW16G28   29.69R
$$

NDZ018>021-031>035-040>046-220300-
SOUTHWEST NORTH DAKOTA

CITY           SKY/WX    TMP DP  RH WIND       PRES   REMARKS
BISMARCK       CLOUDY    49  35  58 W10       29.80R
DICKINSON      CLEAR     43  24  47 W10       29.81R
GARRISON         N/A     47  34  60 NW20      29.75R
HETTINGER ARPT CLEAR     34  22  61 W7        29.89R
$$

NDZ004>008-012>016-024-026-027-054-220300-
NORTHEAST NORTH DAKOTA

CITY           SKY/WX    TMP DP  RH WIND       PRES   REMARKS
GRAND FORKS    LGT RAIN  53  44  71 W13G21    29.63R
GRND FRKS AFB  CLOUDY    52  41  67 W13G21    29.63R
DEVILS LAKE    CLOUDY    48  36  63 W25G35    29.64R
$$

NDZ022-023-025-028>030-036>039-047>053-220300-
SOUTHEAST NORTH DAKOTA

CITY           SKY/WX    TMP DP  RH WIND       PRES   REMARKS
FARGO          CLOUDY    53  44  71 SW15      29.70R
JAMESTOWN      CLOUDY    50  37  61 W20G28    29.72R
$$





USA.gov is the U.S. government's official web portal to all federal, state and local government web resources and services.